Regional Weather Roundup
Issued by NWS

Home | Current Version | Previous Version | Text Only | Print | Product List | Glossary Off
Versions: 1 2 3 4 5 6 7 8 9 10 11 12 13 14 15 16 17 18 19 20 21 22 23 24 25 26 27 28 29 30 31 32 33 34 35 36 37 38 39 40 41 42 43 44 45 46 47 48 49 50

000
ASUS43 KMKX 221721
RWRWI

WISCONSIN REGIONAL WEATHER ROUNDUP
NATIONAL WEATHER SERVICE MILWAUKEE/SULLIVAN WI
1200 PM CDT TUE JUL 22 2014

NOTE: "FAIR" INDICATES FEW OR NO CLOUDS BELOW 12,000 FEET WITH NO
SIGNIFICANT WEATHER AND/OR OBSTRUCTIONS TO VISIBILITY.

WIZ001-002-006>008-014>016-023>028-221800-
NORTHWEST WISCONSIN

CITY           SKY/WX    TMP DP  RH WIND       PRES   REMARKS
SUPERIOR ARPT  PTSUNNY   76  65  68 NW15G24   29.92R
ASHLAND        CLOUDY    74  64  71 NW9G28    29.89S
HAYWARD        CLOUDY    73  63  70 VRB7G17   29.94R
SIREN          CLOUDY    72  62  70 NW12G17   29.97R
RICE LAKE      CLOUDY    77  63  61 NW12G18   29.98R
LADYSMITH      PTSUNNY   77  65  65 NW15G22   29.96R
EAU CLAIRE     PTSUNNY   80  66  62 NW13      29.94R HX  82
MENOMONIE      PTSUNNY   80  65  59 NW12      29.96S HX  82
NEW RICHMOND   PTSUNNY   77  64  64 NW13      29.99S
OSCEOLA        PTSUNNY   76  64  67 NW12      30.01S
$$

WIZ003>005-009-010-017-018-221800-
NORTH CENTRAL WISCONSIN

CITY           SKY/WX    TMP DP  RH WIND       PRES   REMARKS
WOODRUFF       PTSUNNY   77  65  65 NW14G23   29.91R
RHINELANDER    MOSUNNY   79  65  62 NW9G22    29.90R HX  81
EAGLE RIVER    CLOUDY    76  63  63 W15G25    29.89R
LAND O LAKES   PTSUNNY   75  64  68 NW14G23   29.89R
PHILLIPS       PTSUNNY   77  65  66 NW13G24   29.91S
TOMAHAWK       MOSUNNY   78  65  62 NW13G20   29.90S HX  80
MEDFORD        MOSUNNY   78  66  66 NW15      29.93R HX  80
MERRILL        SUNNY     82  67  60 NW13      29.88R HX  84
$$

WIZ029-030-035-036-043>047-221800-
CENTRAL WISCONSIN

CITY           SKY/WX    TMP DP  RH WIND       PRES   REMARKS
WAUSAU         PTSUNNY   85  70  60 W15G29    29.86R HX  89
MOSINEE        PTSUNNY   84  72  65 W14       29.89S HX  89
MARSHFIELD     PTSUNNY   84  72  67 NW20      29.90R HX  89
STEVENS POINT  PTSUNNY   83  70  64 W13       29.89R HX  88
WAUPACA        MOSUNNY   88  71  57 SW14      29.88S HX  94
WAUTOMA        MOSUNNY   89  74  61 S12       29.89F HX  97
WISC RAPIDS    MOSUNNY   88  72  58 W14       29.90R HX  94
CAMP DOUGLAS   MOSUNNY   86  77  74 SW8       29.89F HX  97
$$

WIZ011>013-019>022-031-037>040-048>050-221800-
NORTHEAST WISCONSIN

CITY           SKY/WX    TMP DP  RH WIND       PRES   REMARKS
ANTIGO         CLOUDY    80  70  72 NW16G26   29.88R HX  83
STURGEON BAY   CLOUDY    84  72  65 W21G28    29.85S HX  89
GREEN BAY      PTSUNNY   85  73  67 SW15G22   29.86F HX  91
MANITOWOC      MOSUNNY   85  72  65 W16G22    29.88F HX  91
APPLETON       PTSUNNY   82  70  65 SW16G22   29.89F HX  86
CLINTONVILLE   CLOUDY    86  70  58 SW10G17   29.86S HX  90
OSHKOSH        MOSUNNY   85  73  67 SW16G26   29.87F HX  91
$$

WIZ032>034-041-042-053>061-221800-
SOUTHWEST WISCONSIN

CITY           SKY/WX    TMP DP  RH WIND       PRES   REMARKS
LA CROSSE      MOSUNNY   88  74  63 NW7       29.90R HX  96
SPARTA         MOSUNNY   86  70  58 SW7       29.90S HX  91
VIROQUA        FAIR      85  75  71 SW7       29.93F HX  93
BOSCOBEL       CLOUDY    86  74  67 SW8       29.92S HX  94
PRAIRIE DU CHI PTSUNNY   86  73  65 S6        29.91F HX  92
PLATTEVILLE    FAIR      85  76  73 SW12      29.96F HX  94
$$

WIZ056-057-062-063-064-067-068-221800-
SOUTH CENTRAL WISCONSIN

CITY           SKY/WX    TMP DP  RH WIND       PRES   REMARKS
BARABOO/DELLS  MOSUNNY   86  71  60 SW12G20   29.92F HX  91
LONE ROCK      CLOUDY    88  75  65 W6        29.92F HX  97
WATERTOWN      CLOUDY    84  73  70 SW14G20   29.94F HX  90
MADISON        MOSUNNY   85  73  67 SW8       29.93F HX  91
MIDDLETON      FAIR      86  71  60 SW10      29.94F HX  91
MONROE         CLOUDY    81  72  74 SW15      29.97F HX  84
JANESVILLE     CLOUDY    86  70  58 SW15G22   29.96  HX  90
$$

WIZ051-052-058>065-066-070>072-221800-
SOUTHEAST WISCONSIN

CITY           SKY/WX    TMP DP  RH WIND       PRES   REMARKS
MILWAUKEE      CLOUDY    84  69  60 SW18      29.95F HX  88
WAUKESHA         N/A     81  70  69 SW10      29.97F HX  84
MILWAUKEE/TIMM MOSUNNY   82  68  61 SW12G22   29.95F HX  85
RACINE         PTSUNNY   86  70  58 SW12G20   29.98S HX  90
BURLINGTON     PTSUNNY   82  71  70 SW15G21   29.97S HX  86
KENOSHA        PTSUNNY   84  70  62 SW14      29.97S HX  88
FOND DU LAC    CLOUDY    84  71  65 SW12      29.91F HX  89
SHEBOYGAN      PTSUNNY   85  72  65 SW17      29.91F HX  91
WEST BEND      MOSUNNY   82  70  65 SW10G20   29.93F HX  86
JUNEAU         CLOUDY    82  57  42 SW13      29.95F HX  82
$$

LSZ147-162-221800-
LAKE SUPERIOR

STATION/POSITION TIME  TEMP    WIND        PRES    WAVE
                       AIR SEA DIR/SP/G            HT/PER
                 (UTC) (F)     (DEG/KT/KT) (MB)    (FT/S)
W MID LAKE BUOY  1650   51 40  260/ 17/ 19 1009.2R   3/ 5
PORT WING        1600   68     260/ 11/ 16 1012.5R
SAXON HARBOR     1640          290/ 11/ 17 1012.2R
$$

LMZ867-665-643>646-221800-
LAKE MICHIGAN

STATION/POSITION TIME  TEMP    WIND        PRES    WAVE
                       AIR SEA DIR/SP/G            HT/PER
                 (UTC) (F)     (DEG/KT/KT) (MB)    (FT/S)
N MID LAKE BUOY  1650   63 57  210/ 25/ 31 1008.7F   6/ 6
NORTHPORT PIER   1600   70     150/ 12/ 22 1009.5F
KEWAUNEE LAKESHO 1700   56     180/ 15/ 18 1011.6F
SHEBOYGAN LAKESH 1700   73     180/ 21/ 25 1012.3F
PORT WASHINGTON  1640   63     150/  6/ 10 1014.2S
ATWATER BUOY     1700   69     190/  8     1015.1F
MILWAUKEE LAKESH 1700   81     220/ 13/ 19   N/A
S MID LAKE BUOY  1650   70 68  180/ 16/ 17 1015.2F   2/ 4
KENOSHA   LAKESH 1700   84     230/ 13/ 22   N/A
$$

TC  - TEMPERATURE IN CELSIUS
VSB - VISIBILITY IN STATUTE MILES
WCI - WIND CHILL INDEX
HX  - HEAT INDEX



USA.gov is the U.S. government's official web portal to all federal, state and local government web resources and services.